Regional Weather Roundup
Issued by NWS Grand Forks, ND

Home | Current Version | Previous Version | Graphics & Text | Print | Product List | Glossary On
Versions: 1 2 3 4 5 6 7 8 9 10 11 12 13 14 15 16 17 18 19 20 21 22 23 24 25 26 27 28 29 30 31 32 33 34 35 36 37 38 39 40 41 42 43 44 45 46 47 48 49 50
000
ASUS43 KFGF 210231
RWRFGF
PRAIRIE TO PINES  WEATHER ROUNDUP
NATIONAL WEATHER SERVICE EASTERN NORTH DAKOTA/GRAND FORKS ND
800 PM CST MON FEB 20 2017

 **SATELLITE DATA USED TO AUGMENT SKY COVER AT AUTOMATED STATIONS**
 *****  WEATHER ACROSS EASTERN NORTH DAKOTA  *****

CITY           SKY/WX    TMP DP  RH WIND       PRES   REMARKS
GRAND FORKS    FAIR      34  30  85 W7        29.70R
GRAND FRKS AFB FAIR      32  32 100 W8        29.70S WCI  25
DEVILS LAKE    FAIR      32  32 100 SW3       29.71R FOG
FARGO          FAIR      35  33  92 W8        29.75R
WAHPETON ARPT  FAIR      32  32 100 W6        29.78F
$$

 ***** WEATHER ACROSS CENTRAL AND WESTERN NORTH DAKOTA  *****

CITY           SKY/WX    TMP DP  RH WIND       PRES   REMARKS
BISMARCK       FAIR      38  32  79 CALM      29.77R
MINOT          FAIR      38  33  82 SW9       29.70R
JAMESTOWN      FAIR      37  33  85 SW5       29.74R
MINOT AFB      FAIR      35  31  85 W12       29.69R
GARRISON         N/A     34  30  85 CALM      29.72R
WILLISTON      FAIR      34  27  75 CALM      29.67F
DICKINSON      FAIR      35  25  66 S6        29.69F
HETTINGER      FAIR      39  26  59 SE5       29.74F
$$

 *****  OTHER AIRPORT OBSERVATIONS IN OUR AREA  *****

CITY           SKY/WX    TMP DP  RH WIND       PRES   REMARKS
WALHALLA       NOT AVBL
GRAFTON AIRPOR FAIR      32  32 100 W8        29.70F FOG     WCI  25
VALLEY CITY AR FAIR      34  34 100 W12       29.77R
CANDO          NOT AVBL
CAVALIER APRT    N/A     32  32 100 W10       29.67F WCI  24
GWINNER        FAIR      36  34  93 SW12      29.78R
SHEYENNE NWR     N/A     33  32  96 W3        29.95S
ROLLA          FAIR      36  32  87 W15       29.67R
 ***** THE ABOVE OBSERVATIONS ARE NON NWS ARE NOT QUALITY
       CONTROLLED AND MAY MIS-REPORT RAIN FOR SNOW...
$$

  *****  WEATHER ACROSS NORTHERN MINNESOTA  *****

CITY           SKY/WX    TMP DP  RH WIND       PRES   REMARKS
FLAG ISLAND    CLOUDY    34  32  93 W18G24    29.56R WCI  23
WARROAD        CLOUDY    34  30  86 W14       29.62R WCI  24
ROSEAU         FAIR      34  30  86 W10G17    29.64R
HALLOCK        FAIR      32  30  93 SW7       29.67F
THF RVR FALLS  FAIR      33  32  96 W12       29.69R WCI  24
BAUDETTE       MIX PCPN  35  33  92 W14       29.58R
WASKISH        LGT RAIN  34  34 100 W13       29.64R WCI  25
CROOKSTON      FAIR      34  34 100 W7        29.72S FOG
STEPHEN NDAWN    N/A     34  32  93 W6          N/A
GREENBUSH NDAW   N/A     34  34 100 W8          N/A
$$
  *****  WEATHER ACROSS CENTRAL AND WEST MINNESOTA  *****

CITY           SKY/WX    TMP DP  RH WIND       PRES   REMARKS
FOSSTON        CLOUDY    32  32 100 W8        29.71R WCI  25
BEMIDJI        CLOUDY    34  33  98 W16G22    29.66R WCI  23
PARK RAPIDS    CLOUDY    36  33  89 W17       29.69R
ELBOW LAKE     FAIR      34  34  99 NW6       29.78S
WADENA         CLOUDY    36  36 100 W13G18    29.73R
DETROIT LAKES  CLOUDY    36  34  93 W12       29.75R
MOORHEAD       FAIR      34  32  93 W5        29.76F
FERGUS FALLS   FAIR      34  34 100 NW5       29.80F FOG
MORRIS MN      FAIR      34  34 100 NW6       29.79R FOG
STAPLES        CLOUDY    36  36 100 W18       29.72R
$$
  *****  WEATHER ELSEWHERE ACROSS MINNESOTA  *****

CITY           SKY/WX    TMP DP  RH WIND       PRES   REMARKS
DULUTH         FOG       42  41  96 S7        29.60R VSB 1/4
INTRNTL FALLS  LGT RAIN  41  39  93 SW6       29.53S FOG
ELY            RAIN      43  43 100 S8        29.56S
CLOQUET        FOG       39  37  93 CALM      29.60F VSB 1/4
WHEATON        FAIR      36  34  93 CALM      29.81S
BRAINERD       CLOUDY    41  40  96 W21G28    29.68R
HIBBING        RAIN      40  40 100 VRB3      29.58R FOG
ALEXANDRIA     CLOUDY    37  37 100 W16       29.77R
SAINT CLOUD    CLOUDY    45  44  97 W20       29.68R
MINNEAPOLIS    CLOUDY    55  51  86 SW14G21   29.69R
$$

  *****  WEATHER ACROSS SOUTH DAKOTA  *****

CITY           SKY/WX    TMP DP  RH WIND       PRES   REMARKS
SIOUX FALLS    FAIR      42  39  89 W6        29.86R
BROOKINGS      FAIR      39  37  92 W7        29.83S
WATERTOWN      FAIR      39  37  92 W9        29.82R
HURON          FAIR      40  40 100 CALM      29.84S
SISSETON         N/A     41  37  86 NW13      29.78R
ABERDEEN       FAIR      35  31  85 CALM      29.81R
MITCHELL       FAIR      42  37  82 SE6       29.86S
PIERRE         FAIR      46  31  55 S3        29.82R
MOBRIDGE       FAIR      38  31  76 SE5       29.77R
RAPID CITY     FAIR      49  24  37 S7        29.79F
$$

  *****  SOME WEATHER IN NEARBY STATES *****

CITY           SKY/WX    TMP DP  RH WIND       PRES   REMARKS
GLASGOW MT     MOCLDY    40  30  67 SE12      29.60R
GREAT FALLS MT FAIR      34  29  82 SW9       29.60R
CHEYENNE WY    FAIR      49  16  26 SW13      30.02S
SCOTTSBLUFF NE FAIR      53  23  31 CALM      29.96R
OMAHA NE       FAIR      50  42  74 CALM      29.92R
DES MOINES IA  CLOUDY    60  56  86 SW8       29.86R
DAVENPORT IA   RAIN      60  57  89 SW15      29.90R FOG
CHICAGO IL     CLOUDY    62  44  51 S17G26    29.94F
EAU CLAIRE WI  CLOUDY    52  51  97 SE12      29.70F
LA CROSSE WI   LGT RAIN  55  54  96 S13       29.77F
$$

  *****  SOME NATIONAL WEATHER *****

CITY           SKY/WX    TMP DP  RH WIND       PRES   REMARKS
LA GUARDIA NY  FAIR      44  14  29 NE15      30.33R
RALEIGH NC     MOCLDY    56  37  49 CALM      30.20S
ATLANTA GA     MOCLDY    65  45  48 SE5       30.14R
NEW ORLEANS LA CLOUDY    72  68  87 SE16      29.95F
OKLAHOMA CITY  FAIR      54  50  86 SE7       29.91S
ALBUQUERQUE NM FAIR      55  25  31 N7        30.24R
SALT LAKE CITY MOCLDY    55  36  48 S24G37    29.97R
LOS ANGELES CA CLOUDY    58  56  93 CALM      30.28R
BOISE ID       CLOUDY    51  40  65 E5        29.78S
SEATTLE WA     CLOUDY    45  43  93 SE6       29.71S
$$

*** WEATHER ACROSS MANITOBA...SASKATCHEWAN AND ONTARIO ***
                ***ONTARIO***

CITY           SKY/WX    TMP DP  RH WIND       PRES   REMARKS
GERALDTON      LGT RAIN  39  27  60 S16G22    29.72F
THUNDER BAY    LGT RAIN  36  36 100 E14       29.67F FOG
SIOUX LOOKOUT  LGT RAIN  39  39 100 S7        29.48F FOG
TORONTO        PTCLDY    32  23  69 E5        30.33S
BIG TROUT LK   MIX PCPN  34  34 100 SE12      29.49F FOG
PICKLE LAKE    LGT RAIN  36  36 100 SE20G29   29.50F FOG
DRYDEN         LGT RAIN  41  41 100 S9        29.46F FOG
KENORA         LGT RAIN  34  34 100 W13G20    29.51R FOG     WCI  25
$$
                *** MANITOBA***

CITY           SKY/WX    TMP DP  RH WIND       PRES   REMARKS
BRANDON        CLOUDY    34  32  93 NW10      29.66S
DAUPHIN        MOCLDY    36  32  87 W10       29.63S
ISLAND LAKE    LGT RAIN  34  34 100 CALM      29.41F VSB 3/4
PILOT MOUND      N/A     32  32 100 NW7         N/A
THE PAS        CLOUDY    32  27  80 W3        29.58S
THOMPSON       FLURRIES  23  21  93 NW3       29.53S
WINNIPEG       PTCLDY    32  30  93 W10       29.64R WCI  24
LYNN LAKE      CLOUDY    19  19 100 NE6       29.56S WCI  11
CHURCHILL      LGT SNOW  12   9  85 E23G30    29.71F BLWGSNOWWCI  -7
GILLAM         FRZ DRZL  23  21  93 NE7       29.51F WCI  15
$$
                ***SASKATCHEWAN***

CITY           SKY/WX    TMP DP  RH WIND       PRES   REMARKS
ESTEVAN        PTCLDY    32  30  93 SW6       29.67R
KINDERSLEY     MOCLDY    32  28  86 NE5       29.60F
LLOYDMINSTER   CLOUDY    32  28  86 NW3       29.62R
PRINCE ALBERT  CLOUDY    34  30  86 SW5       29.61S
REGINA         PTCLDY    32  30  93 SE5       29.65R
YORKTON        CLOUDY    36  30  80 W10       29.64R
N. BATTLEFORD  CLOUDY    34  30  86 W6        29.66R
LA RONGE       LGT SNOW  28  28 100 W2        29.59R FOG
SASKATOON      CLOUDY    34  30  86 SW6       29.66R
SWIFT CURRENT  MOCLDY    36  30  80 SE6       29.58S
$$
NOTE: THESE ARE AUTOMATED STATIONS WITH LIMITED QUALITY CONTROL
      "FAIR" INDICATES FEW OR NO CLOUDS BELOW 12,000 FEET WITH NO
      SIGNIFICANT WEATHER AND/OR OBSTRUCTIONS TO VISIBILITY.
      SKY/WX - SKY CONDITION AND SIGNIFICANT WEATHER.
      TMP - AIR TEMPERATURE.    DP   - DEWPOINT TEMPERATURE.
      RH  - RELATIVE HUMIDITY.  PRES - PRESSURE.
      HX  - HEAT INDEX.         WCI  - WIND CHILL INDEX.
$



USA.gov is the U.S. government's official web portal to all federal, state and local government web resources and services.